Back to catalog

STARLINK-31576

AliveCommunicationsVLEO
NORAD 59208·PAYLOAD·🇺🇸 United States

Launched Mar 11, 2024 from Vandenberg Space Force Base

Loading…

Next Passes (next 24 hours)

TLE

FreshSource: CelesTrak SupGP

Epoch: Sep 14, 2026, 14:34 UTC

1 59208C 24046H   26257.60743056 -.00043668  00000+0 -12908-2 0  2570
2 59208  53.1606 353.5672 0001229  82.2660 289.3360 15.34396958    11

Track STARLINK-31576 in real time with AllMySat

Download on the App Store